Time,TemperatureF,DewpointF,PressureIn,WindDirection,WindDirectionDegrees,WindSpeedMPH,WindSpeedGustMPH,Humidity,HourlyPrecipIn,Conditions,Clouds,dailyrainin,SolarRadiationWatts/m^2,SoftwareType,DateUTC
2013-06-30 00:03:00,60.8,55.9,29.85,North,5,0.0,3.0,84,0.00,,,0.00,0,Wunderground v.1.15,2013-06-30 05:03:00,
2013-06-30 00:08:00,60.7,55.8,29.85,North,5,1.0,3.0,84,0.00,,,0.00,0,Wunderground v.1.15,2013-06-30 05:08:00,
2013-06-30 00:13:00,60.7,55.8,29.85,North,5,0.0,2.0,84,0.00,,,0.00,0,Wunderground v.1.15,2013-06-30 05:13:00,
2013-06-30 00:18:00,60.5,55.6,29.85,North,5,3.0,3.0,84,0.00,,,0.00,0,Wunderground v.1.15,2013-06-30 05:18:00,
2013-06-30 00:23:00,60.6,55.7,29.86,North,5,2.0,2.0,84,0.00,,,0.00,0,Wunderground v.1.15,2013-06-30 05:23:00,
2013-06-30 00:29:00,60.6,55.7,29.86,North,5,0.0,2.0,84,0.00,,,0.00,0,Wunderground v.1.15,2013-06-30 05:29:00,
2013-06-30 00:34:00,59.9,54.7,29.86,North,5,0.0,1.0,83,0.00,,,0.00,0,Wunderground v.1.15,2013-06-30 05:34:00,
2013-06-30 00:39:00,59.1,54.3,29.85,North,5,0.0,1.0,84,0.00,,,0.00,0,Wunderground v.1.15,2013-06-30 05:39:00,
2013-06-30 00:44:00,58.6,53.8,29.85,North,5,0.0,0.0,84,0.00,,,0.00,0,Wunderground v.1.15,2013-06-30 05:44:00,
2013-06-30 00:49:00,58.2,53.7,29.86,North,5,0.0,0.0,85,0.00,,,0.00,0,Wunderground v.1.15,2013-06-30 05:49:00,
2013-06-30 00:55:00,58.2,54.0,29.86,North,5,0.0,0.0,86,0.00,,,0.00,0,Wunderground v.1.15,2013-06-30 05:55:00,
2013-06-30 01:00:00,58.2,54.0,29.86,North,5,0.0,0.0,86,0.00,,,0.00,0,Wunderground v.1.15,2013-06-30 06:00:00,
2013-06-30 01:05:00,58.1,53.9,29.86,North,5,1.0,1.0,86,0.00,,,0.00,0,Wunderground v.1.15,2013-06-30 06:05:00,
2013-06-30 01:10:00,58.0,53.8,29.86,North,5,0.0,0.0,86,0.00,,,0.00,0,Wunderground v.1.15,2013-06-30 06:10:00,
2013-06-30 01:15:00,57.9,53.7,29.87,North,5,0.0,1.0,86,0.00,,,0.00,0,Wunderground v.1.15,2013-06-30 06:15:00,
2013-06-30 01:21:00,58.2,54.3,29.86,North,5,1.0,1.0,87,0.00,,,0.00,0,Wunderground v.1.15,2013-06-30 06:21:00,
2013-06-30 01:26:00,58.4,54.5,29.87,North,5,1.0,1.0,87,0.00,,,0.00,0,Wunderground v.1.15,2013-06-30 06:26:00,
2013-06-30 01:31:00,58.3,54.4,29.86,North,5,0.0,1.0,87,0.00,,,0.00,0,Wunderground v.1.15,2013-06-30 06:31:00,
2013-06-30 01:36:00,58.2,54.3,29.87,North,5,0.0,2.0,87,0.00,,,0.00,0,Wunderground v.1.15,2013-06-30 06:36:00,
2013-06-30 01:41:00,58.0,54.2,29.87,North,5,1.0,1.0,87,0.00,,,0.00,0,Wunderground v.1.15,2013-06-30 06:41:00,
2013-06-30 01:47:00,57.9,54.1,29.87,North,5,1.0,3.0,87,0.00,,,0.00,0,Wunderground v.1.15,2013-06-30 06:47:00,
2013-06-30 01:52:00,57.8,54.0,29.87,North,355,0.0,2.0,87,0.00,,,0.00,0,Wunderground v.1.15,2013-06-30 06:52:00,
2013-06-30 01:57:00,58.3,54.8,29.87,NNW,343,3.0,3.0,88,0.00,,,0.00,0,Wunderground v.1.15,2013-06-30 06:57:00,
2013-06-30 02:02:00,58.6,55.1,29.88,NNW,328,1.0,3.0,88,0.00,,,0.00,0,Wunderground v.1.15,2013-06-30 07:02:00,
2013-06-30 02:07:00,58.8,54.9,29.87,NNW,328,2.0,4.0,87,0.00,,,0.00,0,Wunderground v.1.15,2013-06-30 07:07:00,
2013-06-30 02:12:00,59.0,55.8,29.87,NNW,328,1.0,2.0,89,0.00,,,0.00,0,Wunderground v.1.15,2013-06-30 07:12:00,
2013-06-30 02:17:00,58.9,55.0,29.87,NNW,328,0.0,3.0,87,0.00,,,0.00,0,Wunderground v.1.15,2013-06-30 07:17:00,
2013-06-30 02:22:00,58.9,55.0,29.87,NNW,328,2.0,4.0,87,0.00,,,0.00,0,Wunderground v.1.15,2013-06-30 07:22:00,
2013-06-30 02:28:00,58.8,54.9,29.87,NNW,327,3.0,5.0,87,0.00,,,0.00,0,Wunderground v.1.15,2013-06-30 07:28:00,
2013-06-30 02:33:00,58.9,55.0,29.87,NNW,327,2.0,3.0,87,0.00,,,0.00,0,Wunderground v.1.15,2013-06-30 07:33:00,
2013-06-30 02:38:00,58.7,54.5,29.88,NNW,327,0.0,3.0,86,0.00,,,0.00,0,Wunderground v.1.15,2013-06-30 07:38:00,
2013-06-30 02:43:00,58.5,54.3,29.87,NNW,327,1.0,3.0,86,0.00,,,0.00,0,Wunderground v.1.15,2013-06-30 07:43:00,
2013-06-30 02:49:00,58.2,54.3,29.87,NNW,327,0.0,4.0,87,0.00,,,0.00,0,Wunderground v.1.15,2013-06-30 07:49:00,
2013-06-30 02:54:00,58.1,54.2,29.87,NNW,327,1.0,5.0,87,0.00,,,0.00,0,Wunderground v.1.15,2013-06-30 07:54:00,
2013-06-30 02:59:00,57.8,54.0,29.87,NNW,327,4.0,5.0,87,0.00,,,0.00,0,Wunderground v.1.15,2013-06-30 07:59:00,
2013-06-30 03:04:00,57.6,53.8,29.87,NW,309,3.0,5.0,87,0.00,,,0.00,0,Wunderground v.1.15,2013-06-30 08:04:00,
2013-06-30 03:10:00,57.3,53.5,29.87,NW,309,3.0,3.0,87,0.00,,,0.00,0,Wunderground v.1.15,2013-06-30 08:10:00,
2013-06-30 03:15:00,57.4,53.6,29.87,NW,309,2.0,4.0,87,0.00,,,0.00,0,Wunderground v.1.15,2013-06-30 08:15:00,
2013-06-30 03:20:00,57.4,53.6,29.87,NW,309,4.0,4.0,87,0.00,,,0.00,0,Wunderground v.1.15,2013-06-30 08:20:00,
2013-06-30 03:26:00,57.3,53.8,29.87,NW,309,2.0,5.0,88,0.00,,,0.00,0,Wunderground v.1.15,2013-06-30 08:26:00,
2013-06-30 03:31:00,57.1,53.6,29.87,NW,309,4.0,4.0,88,0.00,,,0.00,0,Wunderground v.1.15,2013-06-30 08:31:00,
2013-06-30 03:36:00,57.0,53.5,29.87,NW,309,1.0,4.0,88,0.00,,,0.00,0,Wunderground v.1.15,2013-06-30 08:36:00,
2013-06-30 03:41:00,57.1,53.6,29.87,NW,309,0.0,1.0,88,0.00,,,0.00,0,Wunderground v.1.15,2013-06-30 08:41:00,
2013-06-30 03:46:00,57.3,53.8,29.87,NW,309,0.0,2.0,88,0.00,,,0.00,0,Wunderground v.1.15,2013-06-30 08:46:00,
2013-06-30 03:51:00,57.4,53.9,29.87,NW,309,0.0,1.0,88,0.00,,,0.00,0,Wunderground v.1.15,2013-06-30 08:51:00,
2013-06-30 03:56:00,57.4,53.9,29.87,NW,309,0.0,2.0,88,0.00,,,0.00,0,Wunderground v.1.15,2013-06-30 08:56:00,
2013-06-30 04:01:00,57.3,53.8,29.87,NW,309,1.0,2.0,88,0.00,,,0.00,0,Wunderground v.1.15,2013-06-30 09:01:00,
2013-06-30 04:06:00,57.2,53.7,29.87,NW,309,0.0,2.0,88,0.00,,,0.00,0,Wunderground v.1.15,2013-06-30 09:06:00,
2013-06-30 04:11:00,57.0,53.5,29.87,NW,309,0.0,1.0,88,0.00,,,0.00,0,Wunderground v.1.15,2013-06-30 09:11:00,
2013-06-30 04:16:00,56.8,53.3,29.87,NW,309,1.0,2.0,88,0.00,,,0.00,0,Wunderground v.1.15,2013-06-30 09:16:00,
2013-06-30 04:21:00,56.6,53.1,29.87,NW,309,2.0,2.0,88,0.00,,,0.00,0,Wunderground v.1.15,2013-06-30 09:21:00,
2013-06-30 04:26:00,56.4,52.9,29.87,NW,309,0.0,2.0,88,0.00,,,0.00,0,Wunderground v.1.15,2013-06-30 09:26:00,
2013-06-30 04:31:00,56.5,53.3,29.87,NW,309,2.0,2.0,89,0.00,,,0.00,0,Wunderground v.1.15,2013-06-30 09:31:00,
2013-06-30 04:36:00,56.3,52.8,29.87,NW,309,0.0,3.0,88,0.00,,,0.00,0,Wunderground v.1.15,2013-06-30 09:36:00,
2013-06-30 04:41:00,56.1,52.9,29.87,NW,309,2.0,4.0,89,0.00,,,0.00,0,Wunderground v.1.15,2013-06-30 09:41:00,
2013-06-30 04:47:00,56.0,52.8,29.88,NW,309,1.0,4.0,89,0.00,,,0.00,0,Wunderground v.1.15,2013-06-30 09:47:00,
2013-06-30 04:52:00,55.8,52.6,29.88,NW,309,2.0,4.0,89,0.00,,,0.00,0,Wunderground v.1.15,2013-06-30 09:52:00,
2013-06-30 04:57:00,55.8,52.6,29.88,NW,309,0.0,4.0,89,0.00,,,0.00,0,Wunderground v.1.15,2013-06-30 09:57:00,
2013-06-30 05:03:00,56.0,52.8,29.88,NW,309,1.0,2.0,89,0.00,,,0.00,0,Wunderground v.1.15,2013-06-30 10:03:00,
2013-06-30 05:08:00,56.0,52.8,29.88,NW,309,0.0,2.0,89,0.00,,,0.00,0,Wunderground v.1.15,2013-06-30 10:08:00,
2013-06-30 05:13:00,56.2,53.0,29.87,NW,309,2.0,2.0,89,0.00,,,0.00,0,Wunderground v.1.15,2013-06-30 10:13:00,
2013-06-30 05:18:00,56.3,53.1,29.88,NW,309,0.0,2.0,89,0.00,,,0.00,0,Wunderground v.1.15,2013-06-30 10:18:00,
2013-06-30 05:23:00,56.4,53.2,29.88,NW,309,0.0,1.0,89,0.00,,,0.00,0,Wunderground v.1.15,2013-06-30 10:23:00,
2013-06-30 05:28:00,56.4,53.2,29.88,NW,309,1.0,2.0,89,0.00,,,0.00,0,Wunderground v.1.15,2013-06-30 10:28:00,
2013-06-30 05:33:00,56.5,53.3,29.89,NW,309,1.0,3.0,89,0.00,,,0.00,0,Wunderground v.1.15,2013-06-30 10:33:00,
2013-06-30 05:38:00,56.3,53.1,29.89,NW,309,0.0,3.0,89,0.00,,,0.00,0,Wunderground v.1.15,2013-06-30 10:38:00,
2013-06-30 05:43:00,56.0,52.8,29.89,NW,309,0.0,1.0,89,0.00,,,0.00,0,Wunderground v.1.15,2013-06-30 10:43:00,
2013-06-30 05:49:00,55.8,52.6,29.89,NW,309,0.0,1.0,89,0.00,,,0.00,0,Wunderground v.1.15,2013-06-30 10:49:00,
2013-06-30 05:54:00,55.8,52.6,29.89,NW,309,2.0,2.0,89,0.00,,,0.00,0,Wunderground v.1.15,2013-06-30 10:54:00,
2013-06-30 05:59:00,55.5,52.3,29.89,NW,309,0.0,2.0,89,0.00,,,0.00,0,Wunderground v.1.15,2013-06-30 10:59:00,
2013-06-30 06:04:00,55.0,51.8,29.90,NW,309,0.0,1.0,89,0.00,,,0.00,0,Wunderground v.1.15,2013-06-30 11:04:00,
2013-06-30 06:09:00,54.7,51.5,29.90,NW,309,1.0,3.0,89,0.00,,,0.00,5,Wunderground v.1.15,2013-06-30 11:09:00,
2013-06-30 06:14:00,54.8,51.6,29.90,NW,309,3.0,4.0,89,0.00,,,0.00,7,Wunderground v.1.15,2013-06-30 11:14:00,
2013-06-30 06:19:00,54.5,51.3,29.91,NW,309,1.0,4.0,89,0.00,,,0.00,9,Wunderground v.1.15,2013-06-30 11:19:00,
2013-06-30 06:24:00,54.4,51.2,29.91,NW,309,0.0,3.0,89,0.00,,,0.00,12,Wunderground v.1.15,2013-06-30 11:24:00,
2013-06-30 06:29:00,54.5,51.6,29.91,NW,309,1.0,4.0,90,0.00,,,0.00,12,Wunderground v.1.15,2013-06-30 11:29:00,
2013-06-30 06:34:00,54.7,51.8,29.92,NW,309,1.0,4.0,90,0.00,,,0.00,14,Wunderground v.1.15,2013-06-30 11:34:00,
2013-06-30 06:39:00,54.5,51.6,29.92,NW,309,2.0,4.0,90,0.00,,,0.00,21,Wunderground v.1.15,2013-06-30 11:39:00,
2013-06-30 06:45:00,54.6,51.7,29.92,NW,309,2.0,4.0,90,0.00,,,0.00,33,Wunderground v.1.15,2013-06-30 11:45:00,
2013-06-30 06:50:00,54.9,52.0,29.92,NW,309,2.0,4.0,90,0.00,,,0.00,39,Wunderground v.1.15,2013-06-30 11:50:00,
2013-06-30 06:55:00,55.1,52.2,29.92,NW,309,1.0,3.0,90,0.00,,,0.00,56,Wunderground v.1.15,2013-06-30 11:55:00,
2013-06-30 07:00:00,55.5,52.6,29.92,NW,309,0.0,1.0,90,0.00,,,0.00,65,Wunderground v.1.15,2013-06-30 12:00:00,
2013-06-30 07:05:00,56.0,53.1,29.92,NW,309,2.0,4.0,90,0.00,,,0.00,77,Wunderground v.1.15,2013-06-30 12:05:00,
2013-06-30 07:10:00,56.4,53.5,29.92,NW,309,0.0,1.0,90,0.00,,,0.00,123,Wunderground v.1.15,2013-06-30 12:10:00,
2013-06-30 07:16:00,57.0,54.1,29.92,NW,309,3.0,3.0,90,0.00,,,0.00,127,Wunderground v.1.15,2013-06-30 12:16:00,
2013-06-30 07:21:00,57.7,54.8,29.92,NW,309,0.0,3.0,90,0.00,,,0.00,167,Wunderground v.1.15,2013-06-30 12:21:00,
2013-06-30 07:26:00,58.3,55.4,29.92,NW,309,2.0,3.0,90,0.00,,,0.00,181,Wunderground v.1.15,2013-06-30 12:26:00,
2013-06-30 07:31:00,59.0,56.1,29.92,NW,309,1.0,1.0,90,0.00,,,0.00,90,Wunderground v.1.15,2013-06-30 12:31:00,
2013-06-30 07:36:00,59.3,56.1,29.92,NW,309,1.0,4.0,89,0.00,,,0.00,90,Wunderground v.1.15,2013-06-30 12:36:00,
2013-06-30 07:41:00,59.6,56.4,29.92,NW,309,3.0,4.0,89,0.00,,,0.00,109,Wunderground v.1.15,2013-06-30 12:41:00,
2013-06-30 07:46:00,59.9,56.6,29.92,NW,326,3.0,5.0,89,0.00,,,0.00,125,Wunderground v.1.15,2013-06-30 12:46:00,
2013-06-30 07:51:00,60.2,56.6,29.92,NNW,329,5.0,5.0,88,0.00,,,0.00,127,Wunderground v.1.15,2013-06-30 12:51:00,
2013-06-30 07:56:00,60.4,56.8,29.93,North,355,1.0,5.0,88,0.00,,,0.00,134,Wunderground v.1.15,2013-06-30 12:56:00,
2013-06-30 08:01:00,60.5,56.6,29.93,North,355,2.0,3.0,87,0.00,,,0.00,118,Wunderground v.1.15,2013-06-30 13:01:00,
2013-06-30 08:06:00,60.6,56.7,29.93,North,355,0.0,6.0,87,0.00,,,0.00,125,Wunderground v.1.15,2013-06-30 13:06:00,
2013-06-30 08:11:00,60.8,56.9,29.93,North,355,2.0,4.0,87,0.00,,,0.00,181,Wunderground v.1.15,2013-06-30 13:11:00,
2013-06-30 08:16:00,61.0,56.8,29.93,North,355,3.0,4.0,86,0.00,,,0.00,171,Wunderground v.1.15,2013-06-30 13:16:00,
2013-06-30 08:21:00,61.6,57.7,29.93,NNW,346,2.0,4.0,87,0.00,,,0.00,343,Wunderground v.1.15,2013-06-30 13:21:00,
2013-06-30 08:27:00,62.2,58.0,29.93,NNW,333,4.0,5.0,86,0.00,,,0.00,339,Wunderground v.1.15,2013-06-30 13:27:00,
2013-06-30 08:32:00,62.7,58.1,29.93,NNW,342,4.0,4.0,85,0.00,,,0.00,285,Wunderground v.1.15,2013-06-30 13:32:00,
2013-06-30 08:37:00,63.1,58.2,29.93,NNW,328,5.0,6.0,84,0.00,,,0.00,156,Wunderground v.1.15,2013-06-30 13:37:00,
2013-06-30 08:42:00,63.0,57.8,29.93,NNW,328,2.0,3.0,83,0.00,,,0.00,241,Wunderground v.1.15,2013-06-30 13:42:00,
2013-06-30 08:47:00,63.2,58.3,29.93,NNW,328,1.0,5.0,84,0.00,,,0.00,366,Wunderground v.1.15,2013-06-30 13:47:00,
2013-06-30 08:52:00,63.8,58.9,29.94,NNW,328,1.0,4.0,84,0.00,,,0.00,304,Wunderground v.1.15,2013-06-30 13:52:00,
2013-06-30 08:57:00,64.1,58.8,29.94,NNW,328,3.0,4.0,83,0.00,,,0.00,350,Wunderground v.1.15,2013-06-30 13:57:00,
2013-06-30 09:02:00,64.6,58.6,29.93,NNW,328,0.0,3.0,81,0.00,,,0.00,385,Wunderground v.1.15,2013-06-30 14:02:00,
2013-06-30 09:07:00,64.8,58.8,29.93,NW,323,0.0,4.0,81,0.00,,,0.00,415,Wunderground v.1.15,2013-06-30 14:07:00,
2013-06-30 09:12:00,65.3,59.0,29.94,NW,323,1.0,3.0,80,0.00,,,0.00,450,Wunderground v.1.15,2013-06-30 14:12:00,
2013-06-30 09:17:00,65.8,59.1,29.93,NW,323,1.0,4.0,79,0.00,,,0.00,459,Wunderground v.1.15,2013-06-30 14:17:00,
2013-06-30 09:22:00,66.2,59.1,29.93,NW,323,3.0,4.0,78,0.00,,,0.00,522,Wunderground v.1.15,2013-06-30 14:22:00,
2013-06-30 09:27:00,66.8,59.4,29.93,NW,323,2.0,4.0,77,0.00,,,0.00,592,Wunderground v.1.15,2013-06-30 14:27:00,
2013-06-30 09:32:00,67.4,58.8,29.93,NW,323,2.0,2.0,74,0.00,,,0.00,573,Wunderground v.1.15,2013-06-30 14:32:00,
2013-06-30 09:37:00,68.0,59.0,29.93,NW,325,4.0,4.0,73,0.00,,,0.00,575,Wunderground v.1.15,2013-06-30 14:37:00,
2013-06-30 09:42:00,68.5,58.3,29.93,NW,325,0.0,2.0,70,0.00,,,0.00,582,Wunderground v.1.15,2013-06-30 14:42:00,
2013-06-30 09:47:00,69.0,58.4,29.93,NNW,329,3.0,5.0,69,0.00,,,0.00,591,Wunderground v.1.15,2013-06-30 14:47:00,
2013-06-30 09:52:00,69.5,58.9,29.94,NNW,333,3.0,4.0,69,0.00,,,0.00,601,Wunderground v.1.15,2013-06-30 14:52:00,
2013-06-30 09:57:00,70.1,59.0,29.93,NNE,13,3.0,4.0,68,0.00,,,0.00,617,Wunderground v.1.15,2013-06-30 14:57:00,
2013-06-30 10:03:00,70.4,58.1,29.94,North,9,3.0,6.0,65,0.00,,,0.00,635,Wunderground v.1.15,2013-06-30 15:03:00,
2013-06-30 10:08:00,70.6,56.9,29.94,North,11,3.0,8.0,62,0.00,,,0.00,617,Wunderground v.1.15,2013-06-30 15:08:00,
2013-06-30 10:13:00,70.7,57.5,29.94,North,360,6.0,8.0,63,0.00,,,0.00,631,Wunderground v.1.15,2013-06-30 15:13:00,
2013-06-30 10:18:00,70.9,56.8,29.94,NNW,347,9.0,9.0,61,0.00,,,0.00,649,Wunderground v.1.15,2013-06-30 15:18:00,
2013-06-30 10:23:00,71.3,56.2,29.94,NNE,17,7.0,8.0,59,0.00,,,0.00,668,Wunderground v.1.15,2013-06-30 15:23:00,
2013-06-30 10:28:00,71.6,57.4,29.94,NNE,26,3.0,9.0,61,0.00,,,0.00,700,Wunderground v.1.15,2013-06-30 15:28:00,
2013-06-30 10:33:00,71.8,56.7,29.94,NE,38,7.0,11.0,59,0.00,,,0.00,740,Wunderground v.1.15,2013-06-30 15:33:00,
2013-06-30 10:38:00,71.9,57.3,29.94,North,5,8.0,11.0,60,0.00,,,0.00,622,Wunderground v.1.15,2013-06-30 15:38:00,
2013-06-30 10:43:00,72.0,57.4,29.94,North,5,9.0,10.0,60,0.00,,,0.00,777,Wunderground v.1.15,2013-06-30 15:43:00,
2013-06-30 10:48:00,72.2,58.0,29.94,NNE,13,7.0,11.0,61,0.00,,,0.00,782,Wunderground v.1.15,2013-06-30 15:48:00,
2013-06-30 10:53:00,72.4,57.7,29.94,NE,34,7.0,10.0,60,0.00,,,0.00,791,Wunderground v.1.15,2013-06-30 15:53:00,
2013-06-30 10:58:00,72.5,57.8,29.94,NNE,27,4.0,10.0,60,0.00,,,0.00,770,Wunderground v.1.15,2013-06-30 15:58:00,
2013-06-30 11:03:00,72.7,58.0,29.94,NNE,30,7.0,8.0,60,0.00,,,0.00,645,Wunderground v.1.15,2013-06-30 16:03:00,
2013-06-30 11:08:00,72.9,57.7,29.94,NE,54,6.0,11.0,59,0.00,,,0.00,810,Wunderground v.1.15,2013-06-30 16:08:00,
2013-06-30 11:13:00,73.0,57.3,29.94,NE,44,10.0,12.0,58,0.00,,,0.00,837,Wunderground v.1.15,2013-06-30 16:13:00,
2013-06-30 11:18:00,73.2,56.6,29.94,NNE,17,7.0,12.0,56,0.00,,,0.00,842,Wunderground v.1.15,2013-06-30 16:18:00,
2013-06-30 11:23:00,73.6,55.9,29.94,ENE,74,9.0,12.0,54,0.00,,,0.00,838,Wunderground v.1.15,2013-06-30 16:23:00,
2013-06-30 11:28:00,73.4,56.2,29.94,NNE,32,7.0,15.0,55,0.00,,,0.00,856,Wunderground v.1.15,2013-06-30 16:28:00,
2013-06-30 11:33:00,73.3,56.2,29.94,North,9,5.0,8.0,55,0.00,,,0.00,861,Wunderground v.1.15,2013-06-30 16:33:00,
2013-06-30 11:38:00,73.4,55.7,29.94,NE,51,7.0,11.0,54,0.00,,,0.00,874,Wunderground v.1.15,2013-06-30 16:38:00,
2013-06-30 11:43:00,73.3,55.6,29.94,NE,53,6.0,12.0,54,0.00,,,0.00,879,Wunderground v.1.15,2013-06-30 16:43:00,
2013-06-30 11:49:00,73.5,56.3,29.94,NNE,15,5.0,12.0,55,0.00,,,0.00,898,Wunderground v.1.15,2013-06-30 16:49:00,
2013-06-30 11:54:00,73.6,56.9,29.94,NNE,32,10.0,12.0,56,0.00,,,0.00,807,Wunderground v.1.15,2013-06-30 16:54:00,
2013-06-30 11:59:00,73.5,55.8,29.93,North,350,8.0,13.0,54,0.00,,,0.00,904,Wunderground v.1.15,2013-06-30 16:59:00,
2013-06-30 12:04:00,74.0,56.8,29.93,North,9,6.0,9.0,55,0.00,,,0.00,898,Wunderground v.1.15,2013-06-30 17:04:00,
2013-06-30 12:09:00,74.2,56.5,29.93,NE,37,2.0,11.0,54,0.00,,,0.00,893,Wunderground v.1.15,2013-06-30 17:09:00,
2013-06-30 12:14:00,74.3,57.1,29.93,NNE,22,5.0,12.0,55,0.00,,,0.00,912,Wunderground v.1.15,2013-06-30 17:14:00,
2013-06-30 12:19:00,74.5,57.3,29.93,NNW,346,7.0,12.0,55,0.00,,,0.00,911,Wunderground v.1.15,2013-06-30 17:19:00,
2013-06-30 12:24:00,74.5,57.3,29.93,NE,42,6.0,14.0,55,0.00,,,0.00,918,Wunderground v.1.15,2013-06-30 17:24:00,
2013-06-30 12:29:00,74.5,58.3,29.93,ENE,57,11.0,16.0,57,0.00,,,0.00,928,Wunderground v.1.15,2013-06-30 17:29:00,
2013-06-30 12:34:00,74.4,56.7,29.93,North,5,5.0,16.0,54,0.00,,,0.00,744,Wunderground v.1.15,2013-06-30 17:34:00,
2013-06-30 12:39:00,74.0,56.8,29.93,NE,52,10.0,16.0,55,0.00,,,0.00,983,Wunderground v.1.15,2013-06-30 17:39:00,
2013-06-30 12:44:00,74.2,56.0,29.93,NE,37,8.0,13.0,53,0.00,,,0.00,967,Wunderground v.1.15,2013-06-30 17:44:00,
2013-06-30 12:49:00,74.3,57.1,29.93,North,355,15.0,15.0,55,0.00,,,0.00,990,Wunderground v.1.15,2013-06-30 17:49:00,
2013-06-30 12:54:00,74.3,57.1,29.93,North,360,11.0,15.0,55,0.00,,,0.00,974,Wunderground v.1.15,2013-06-30 17:54:00,
2013-06-30 12:59:00,74.4,58.2,29.93,NNW,336,12.0,15.0,57,0.00,,,0.00,1079,Wunderground v.1.15,2013-06-30 17:59:00,
2013-06-30 13:04:00,75.0,57.2,29.93,NNE,15,14.0,16.0,54,0.00,,,0.00,1021,Wunderground v.1.15,2013-06-30 18:04:00,
2013-06-30 13:09:00,75.2,57.4,29.93,NE,46,6.0,16.0,54,0.00,,,0.00,940,Wunderground v.1.15,2013-06-30 18:09:00,
2013-06-30 13:14:00,75.1,57.3,29.93,North,10,9.0,15.0,54,0.00,,,0.00,1025,Wunderground v.1.15,2013-06-30 18:14:00,
2013-06-30 13:19:00,75.2,57.9,29.93,NE,36,7.0,15.0,55,0.00,,,0.00,1030,Wunderground v.1.15,2013-06-30 18:19:00,
2013-06-30 13:24:00,75.2,56.9,29.93,NNE,22,9.0,16.0,53,0.00,,,0.00,1123,Wunderground v.1.15,2013-06-30 18:24:00,
2013-06-30 13:29:00,75.2,58.9,29.93,NE,43,7.0,16.0,57,0.00,,,0.00,1083,Wunderground v.1.15,2013-06-30 18:29:00,
2013-06-30 13:34:00,75.7,58.9,29.93,NNW,345,10.0,11.0,56,0.00,,,0.00,1116,Wunderground v.1.15,2013-06-30 18:34:00,
2013-06-30 13:39:00,75.9,58.6,29.93,ENE,57,11.0,15.0,55,0.00,,,0.00,1155,Wunderground v.1.15,2013-06-30 18:39:00,
2013-06-30 13:44:00,75.9,58.1,29.93,NE,38,7.0,14.0,54,0.00,,,0.00,1167,Wunderground v.1.15,2013-06-30 18:44:00,
2013-06-30 13:49:00,75.6,57.3,29.93,North,351,8.0,16.0,53,0.00,,,0.00,1081,Wunderground v.1.15,2013-06-30 18:49:00,
2013-06-30 13:54:00,75.3,58.5,29.93,NNE,15,7.0,14.0,56,0.00,,,0.00,1141,Wunderground v.1.15,2013-06-30 18:54:00,
2013-06-30 13:59:00,75.6,57.8,29.93,NNE,22,6.0,14.0,54,0.00,,,0.00,1079,Wunderground v.1.15,2013-06-30 18:59:00,
2013-06-30 14:04:00,75.8,58.5,29.93,NE,34,8.0,16.0,55,0.00,,,0.00,1148,Wunderground v.1.15,2013-06-30 19:04:00,
2013-06-30 14:09:00,75.1,56.8,29.93,NNE,30,10.0,19.0,53,0.00,,,0.00,315,Wunderground v.1.15,2013-06-30 19:09:00,
2013-06-30 14:14:00,75.3,57.0,29.93,NNE,31,4.0,13.0,53,0.00,,,0.00,1081,Wunderground v.1.15,2013-06-30 19:14:00,
2013-06-30 14:19:00,75.2,57.4,29.93,NNW,346,10.0,13.0,54,0.00,,,0.00,279,Wunderground v.1.15,2013-06-30 19:19:00,
2013-06-30 14:25:00,75.2,56.9,29.93,NNE,30,8.0,14.0,53,0.00,,,0.00,1074,Wunderground v.1.15,2013-06-30 19:25:00,
2013-06-30 14:30:00,75.8,57.4,29.93,NNE,24,13.0,13.0,53,0.00,,,0.00,1116,Wunderground v.1.15,2013-06-30 19:30:00,
2013-06-30 14:35:00,75.8,56.9,29.93,NE,38,13.0,15.0,52,0.00,,,0.00,1081,Wunderground v.1.15,2013-06-30 19:35:00,
2013-06-30 14:40:00,75.9,57.5,29.93,NNE,13,10.0,11.0,53,0.00,,,0.00,424,Wunderground v.1.15,2013-06-30 19:40:00,
2013-06-30 14:45:00,75.5,57.2,29.93,NNE,30,4.0,11.0,53,0.00,,,0.00,255,Wunderground v.1.15,2013-06-30 19:45:00,
2013-06-30 14:50:00,75.1,57.3,29.93,NNE,30,5.0,7.0,54,0.00,,,0.00,1074,Wunderground v.1.15,2013-06-30 19:50:00,
2013-06-30 14:55:00,75.7,57.9,29.93,NNE,32,8.0,13.0,54,0.00,,,0.00,230,Wunderground v.1.15,2013-06-30 19:55:00,
2013-06-30 15:00:00,75.6,58.3,29.93,NE,53,4.0,9.0,55,0.00,,,0.00,1056,Wunderground v.1.15,2013-06-30 20:00:00,
2013-06-30 15:05:00,76.0,57.6,29.93,North,355,7.0,15.0,53,0.00,,,0.00,1004,Wunderground v.1.15,2013-06-30 20:05:00,
2013-06-30 15:10:00,75.8,56.4,29.93,North,9,9.0,13.0,51,0.00,,,0.00,237,Wunderground v.1.15,2013-06-30 20:10:00,
2013-06-30 15:15:00,75.4,57.6,29.93,NNE,16,11.0,14.0,54,0.00,,,0.00,984,Wunderground v.1.15,2013-06-30 20:15:00,
2013-06-30 15:20:00,75.9,57.5,29.93,NE,38,9.0,14.0,53,0.00,,,0.00,967,Wunderground v.1.15,2013-06-30 20:20:00,
2013-06-30 15:25:00,76.0,58.2,29.93,NNE,30,8.0,14.0,54,0.00,,,0.00,928,Wunderground v.1.15,2013-06-30 20:25:00,
2013-06-30 15:30:00,76.1,58.2,29.93,NE,54,18.0,18.0,54,0.00,,,0.00,1046,Wunderground v.1.15,2013-06-30 20:30:00,
2013-06-30 15:35:00,75.8,58.5,29.93,NE,37,8.0,18.0,55,0.00,,,0.00,953,Wunderground v.1.15,2013-06-30 20:35:00,
2013-06-30 15:40:00,76.4,59.0,29.93,North,5,12.0,13.0,55,0.00,,,0.00,983,Wunderground v.1.15,2013-06-30 20:40:00,
2013-06-30 15:45:00,76.1,57.2,29.93,NE,35,12.0,17.0,52,0.00,,,0.00,287,Wunderground v.1.15,2013-06-30 20:45:00,
2013-06-30 15:50:00,75.6,57.8,29.93,NNE,33,8.0,10.0,54,0.00,,,0.00,963,Wunderground v.1.15,2013-06-30 20:50:00,
2013-06-30 15:55:00,75.9,59.1,29.93,NE,42,9.0,14.0,56,0.00,,,0.00,993,Wunderground v.1.15,2013-06-30 20:55:00,
2013-06-30 16:00:00,75.8,57.4,29.93,NNE,28,5.0,10.0,53,0.00,,,0.00,301,Wunderground v.1.15,2013-06-30 21:00:00,
2013-06-30 16:05:00,75.4,57.1,29.93,NNE,29,13.0,15.0,53,0.00,,,0.00,510,Wunderground v.1.15,2013-06-30 21:05:00,
2013-06-30 16:10:00,75.3,57.0,29.93,NNE,24,10.0,12.0,53,0.00,,,0.00,891,Wunderground v.1.15,2013-06-30 21:10:00,
2013-06-30 16:15:00,75.6,57.8,29.93,North,5,10.0,16.0,54,0.00,,,0.00,666,Wunderground v.1.15,2013-06-30 21:15:00,
2013-06-30 16:20:00,75.7,56.8,29.93,North,10,8.0,10.0,52,0.00,,,0.00,656,Wunderground v.1.15,2013-06-30 21:20:00,
2013-06-30 16:25:00,76.1,56.1,29.93,NNE,25,11.0,17.0,50,0.00,,,0.00,800,Wunderground v.1.15,2013-06-30 21:25:00,
2013-06-30 16:30:00,75.9,57.0,29.93,NE,36,9.0,12.0,52,0.00,,,0.00,606,Wunderground v.1.15,2013-06-30 21:30:00,
2013-06-30 16:35:00,76.0,56.6,29.93,NNE,32,12.0,15.0,51,0.00,,,0.00,879,Wunderground v.1.15,2013-06-30 21:35:00,
2013-06-30 16:40:00,76.1,56.7,29.92,NE,34,9.0,11.0,51,0.00,,,0.00,831,Wunderground v.1.15,2013-06-30 21:40:00,
2013-06-30 16:45:00,76.0,56.6,29.93,NE,36,9.0,14.0,51,0.00,,,0.00,621,Wunderground v.1.15,2013-06-30 21:45:00,
2013-06-30 16:50:00,75.8,56.4,29.93,NE,44,6.0,9.0,51,0.00,,,0.00,664,Wunderground v.1.15,2013-06-30 21:50:00,
2013-06-30 16:55:00,75.8,55.3,29.93,NNE,19,7.0,14.0,49,0.00,,,0.00,601,Wunderground v.1.15,2013-06-30 21:55:00,
2013-06-30 17:00:00,75.9,58.1,29.93,NE,56,9.0,11.0,54,0.00,,,0.00,789,Wunderground v.1.15,2013-06-30 22:00:00,
2013-06-30 17:05:00,75.7,55.7,29.93,ENE,59,10.0,14.0,50,0.00,,,0.00,633,Wunderground v.1.15,2013-06-30 22:05:00,
2013-06-30 17:10:00,75.3,56.5,29.93,North,5,8.0,12.0,52,0.00,,,0.00,733,Wunderground v.1.15,2013-06-30 22:10:00,
2013-06-30 17:15:00,75.1,55.2,29.93,NNE,22,8.0,15.0,50,0.00,,,0.00,677,Wunderground v.1.15,2013-06-30 22:15:00,
2013-06-30 17:20:00,74.9,55.6,29.93,ENE,61,9.0,12.0,51,0.00,,,0.00,642,Wunderground v.1.15,2013-06-30 22:20:00,
2013-06-30 17:26:00,75.0,55.6,29.93,NNE,31,7.0,13.0,51,0.00,,,0.00,661,Wunderground v.1.15,2013-06-30 22:26:00,
2013-06-30 17:31:00,74.9,55.0,29.93,ENE,61,5.0,10.0,50,0.00,,,0.00,649,Wunderground v.1.15,2013-06-30 22:31:00,
2013-06-30 17:36:00,74.6,55.8,29.93,NE,39,6.0,12.0,52,0.00,,,0.00,603,Wunderground v.1.15,2013-06-30 22:36:00,
2013-06-30 17:41:00,74.8,55.5,29.93,NNE,16,13.0,15.0,51,0.00,,,0.00,596,Wunderground v.1.15,2013-06-30 22:41:00,
2013-06-30 17:46:00,74.7,55.9,29.93,NNE,31,7.0,15.0,52,0.00,,,0.00,547,Wunderground v.1.15,2013-06-30 22:46:00,
2013-06-30 17:51:00,74.6,55.3,29.93,NE,53,9.0,12.0,51,0.00,,,0.00,520,Wunderground v.1.15,2013-06-30 22:51:00,
2013-06-30 17:56:00,74.6,54.7,29.94,NNE,12,10.0,14.0,50,0.00,,,0.00,513,Wunderground v.1.15,2013-06-30 22:56:00,
2013-06-30 18:01:00,74.6,54.7,29.94,ENE,74,7.0,9.0,50,0.00,,,0.00,508,Wunderground v.1.15,2013-06-30 23:01:00,
2013-06-30 18:06:00,74.6,53.6,29.94,NNE,24,8.0,15.0,48,0.00,,,0.00,489,Wunderground v.1.15,2013-06-30 23:06:00,
2013-06-30 18:11:00,74.8,55.5,29.94,NE,42,10.0,11.0,51,0.00,,,0.00,475,Wunderground v.1.15,2013-06-30 23:11:00,
2013-06-30 18:16:00,74.7,55.4,29.94,NE,44,6.0,14.0,51,0.00,,,0.00,471,Wunderground v.1.15,2013-06-30 23:16:00,
2013-06-30 18:21:00,74.3,53.9,29.94,NE,35,11.0,15.0,49,0.00,,,0.00,457,Wunderground v.1.15,2013-06-30 23:21:00,
2013-06-30 18:26:00,74.1,53.7,29.94,NNE,22,7.0,15.0,49,0.00,,,0.00,432,Wunderground v.1.15,2013-06-30 23:26:00,
2013-06-30 18:31:00,74.2,53.2,29.94,NNE,28,10.0,10.0,48,0.00,,,0.00,429,Wunderground v.1.15,2013-06-30 23:31:00,
2013-06-30 18:36:00,74.0,52.5,29.94,NNE,30,8.0,13.0,47,0.00,,,0.00,390,Wunderground v.1.15,2013-06-30 23:36:00,
2013-06-30 18:41:00,73.6,52.7,29.94,NE,34,7.0,10.0,48,0.00,,,0.00,390,Wunderground v.1.15,2013-06-30 23:41:00,
2013-06-30 18:46:00,73.6,52.7,29.94,NE,37,8.0,14.0,48,0.00,,,0.00,376,Wunderground v.1.15,2013-06-30 23:46:00,
2013-06-30 18:51:00,73.5,52.6,29.94,NE,47,5.0,8.0,48,0.00,,,0.00,359,Wunderground v.1.15,2013-06-30 23:51:00,
2013-06-30 18:56:00,73.5,52.6,29.94,NNE,24,7.0,11.0,48,0.00,,,0.00,364,Wunderground v.1.15,2013-06-30 23:56:00,
2013-06-30 19:01:00,73.3,51.3,29.94,NNE,30,8.0,12.0,46,0.00,,,0.00,338,Wunderground v.1.15,2013-07-01 00:01:00,
2013-06-30 19:06:00,73.1,52.2,29.94,NNE,22,6.0,12.0,48,0.00,,,0.00,323,Wunderground v.1.15,2013-07-01 00:06:00,
2013-06-30 19:11:00,72.9,52.1,29.95,NNE,32,6.0,14.0,48,0.00,,,0.00,308,Wunderground v.1.15,2013-07-01 00:11:00,
2013-06-30 19:16:00,72.7,51.3,29.95,NNE,24,8.0,14.0,47,0.00,,,0.00,301,Wunderground v.1.15,2013-07-01 00:16:00,
2013-06-30 19:21:00,72.6,50.0,29.94,NE,44,6.0,12.0,45,0.00,,,0.00,283,Wunderground v.1.15,2013-07-01 00:21:00,
2013-06-30 19:26:00,72.3,50.4,29.95,NNE,23,6.0,12.0,46,0.00,,,0.00,255,Wunderground v.1.15,2013-07-01 00:26:00,
2013-06-30 19:31:00,72.3,50.4,29.95,ENE,57,7.0,9.0,46,0.00,,,0.00,246,Wunderground v.1.15,2013-07-01 00:31:00,
2013-06-30 19:36:00,72.2,50.8,29.95,NE,49,5.0,10.0,47,0.00,,,0.00,229,Wunderground v.1.15,2013-07-01 00:36:00,
2013-06-30 19:41:00,72.1,51.3,29.94,NE,44,6.0,9.0,48,0.00,,,0.00,229,Wunderground v.1.15,2013-07-01 00:41:00,
2013-06-30 19:46:00,71.8,51.6,29.95,NE,47,6.0,9.0,49,0.00,,,0.00,206,Wunderground v.1.15,2013-07-01 00:46:00,
2013-06-30 19:51:00,71.6,51.4,29.95,NE,49,5.0,10.0,49,0.00,,,0.00,188,Wunderground v.1.15,2013-07-01 00:51:00,
2013-06-30 19:56:00,71.1,51.5,29.95,NE,40,3.0,10.0,50,0.00,,,0.00,149,Wunderground v.1.15,2013-07-01 00:56:00,
2013-06-30 20:01:00,70.7,51.1,29.95,NE,40,2.0,5.0,50,0.00,,,0.00,62,Wunderground v.1.15,2013-07-01 01:01:00,
2013-06-30 20:06:00,70.4,51.4,29.95,NE,44,3.0,5.0,51,0.00,,,0.00,56,Wunderground v.1.15,2013-07-01 01:06:00,
2013-06-30 20:11:00,70.1,51.7,29.95,NE,44,2.0,3.0,52,0.00,,,0.00,51,Wunderground v.1.15,2013-07-01 01:11:00,
2013-06-30 20:16:00,69.8,52.4,29.95,ENE,64,3.0,5.0,54,0.00,,,0.00,46,Wunderground v.1.15,2013-07-01 01:16:00,
2013-06-30 20:21:00,69.4,52.5,29.95,ENE,63,2.0,4.0,55,0.00,,,0.00,44,Wunderground v.1.15,2013-07-01 01:21:00,
2013-06-30 20:26:00,69.2,52.3,29.95,ENE,61,4.0,5.0,55,0.00,,,0.00,39,Wunderground v.1.15,2013-07-01 01:26:00,
2013-06-30 20:31:00,68.9,53.0,29.95,ENE,60,4.0,5.0,57,0.00,,,0.00,35,Wunderground v.1.15,2013-07-01 01:31:00,
2013-06-30 20:36:00,68.5,53.1,29.95,ENE,57,4.0,5.0,58,0.00,,,0.00,32,Wunderground v.1.15,2013-07-01 01:36:00,
2013-06-30 20:41:00,68.0,53.6,29.95,ENE,57,3.0,5.0,60,0.00,,,0.00,28,Wunderground v.1.15,2013-07-01 01:41:00,
2013-06-30 20:46:00,67.5,52.7,29.95,ENE,57,3.0,5.0,59,0.00,,,0.00,25,Wunderground v.1.15,2013-07-01 01:46:00,
2013-06-30 20:51:00,67.1,52.7,29.95,ENE,57,3.0,4.0,60,0.00,,,0.00,19,Wunderground v.1.15,2013-07-01 01:51:00,
2013-06-30 20:56:00,66.7,52.8,29.96,ENE,57,0.0,4.0,61,0.00,,,0.00,14,Wunderground v.1.15,2013-07-01 01:56:00,
2013-06-30 21:02:00,66.4,52.5,29.96,ENE,57,0.0,2.0,61,0.00,,,0.00,11,Wunderground v.1.15,2013-07-01 02:02:00,
2013-06-30 21:07:00,65.9,52.5,29.96,ENE,57,2.0,4.0,62,0.00,,,0.00,7,Wunderground v.1.15,2013-07-01 02:07:00,
2013-06-30 21:12:00,65.8,52.4,29.96,ENE,57,1.0,3.0,62,0.00,,,0.00,0,Wunderground v.1.15,2013-07-01 02:12:00,
2013-06-30 21:17:00,65.0,53.8,29.96,ENE,57,0.0,3.0,67,0.00,,,0.00,0,Wunderground v.1.15,2013-07-01 02:17:00,
2013-06-30 21:22:00,64.0,53.2,29.96,ENE,57,0.0,2.0,68,0.00,,,0.00,0,Wunderground v.1.15,2013-07-01 02:22:00,
2013-06-30 21:27:00,63.4,54.2,29.96,ENE,57,0.0,2.0,72,0.00,,,0.00,0,Wunderground v.1.15,2013-07-01 02:27:00,
2013-06-30 21:32:00,62.7,54.3,29.97,ENE,57,0.0,0.0,74,0.00,,,0.00,0,Wunderground v.1.15,2013-07-01 02:32:00,
2013-06-30 21:37:00,62.0,54.0,29.97,ENE,57,0.0,1.0,75,0.00,,,0.00,0,Wunderground v.1.15,2013-07-01 02:37:00,
2013-06-30 21:42:00,61.5,53.1,29.97,ENE,57,1.0,1.0,74,0.00,,,0.00,0,Wunderground v.1.15,2013-07-01 02:42:00,
2013-06-30 21:47:00,61.3,53.7,29.98,ENE,57,0.0,1.0,76,0.00,,,0.00,0,Wunderground v.1.15,2013-07-01 02:47:00,
2013-06-30 21:52:00,60.8,53.9,29.98,ENE,57,0.0,0.0,78,0.00,,,0.00,0,Wunderground v.1.15,2013-07-01 02:52:00,
2013-06-30 21:57:00,60.2,53.3,29.98,ENE,57,0.0,0.0,78,0.00,,,0.00,0,Wunderground v.1.15,2013-07-01 02:57:00,
2013-06-30 22:02:00,59.7,52.8,29.98,ENE,57,0.0,0.0,78,0.00,,,0.00,0,Wunderground v.1.15,2013-07-01 03:02:00,
2013-06-30 22:07:00,59.2,52.7,29.98,ENE,57,0.0,0.0,79,0.00,,,0.00,0,Wunderground v.1.15,2013-07-01 03:07:00,
2013-06-30 22:12:00,58.9,52.7,29.99,ENE,57,0.0,0.0,80,0.00,,,0.00,0,Wunderground v.1.15,2013-07-01 03:12:00,
2013-06-30 22:17:00,58.8,53.0,29.99,ENE,57,0.0,0.0,81,0.00,,,0.00,0,Wunderground v.1.15,2013-07-01 03:17:00,
2013-06-30 22:22:00,58.5,53.0,29.99,ENE,57,0.0,0.0,82,0.00,,,0.00,0,Wunderground v.1.15,2013-07-01 03:22:00,
2013-06-30 22:27:00,58.1,52.6,29.99,ENE,57,0.0,0.0,82,0.00,,,0.00,0,Wunderground v.1.15,2013-07-01 03:27:00,
2013-06-30 22:32:00,57.8,52.3,29.99,ENE,57,0.0,0.0,82,0.00,,,0.00,0,Wunderground v.1.15,2013-07-01 03:32:00,
2013-06-30 22:37:00,57.4,51.9,29.99,ENE,57,0.0,0.0,82,0.00,,,0.00,0,Wunderground v.1.15,2013-07-01 03:37:00,
2013-06-30 22:42:00,57.2,51.8,29.99,ENE,57,0.0,0.0,82,0.00,,,0.00,0,Wunderground v.1.15,2013-07-01 03:42:00,
2013-06-30 22:47:00,57.0,51.9,29.99,ENE,57,0.0,0.0,83,0.00,,,0.00,0,Wunderground v.1.15,2013-07-01 03:47:00,
2013-06-30 22:52:00,56.6,51.5,29.99,ENE,57,0.0,0.0,83,0.00,,,0.00,0,Wunderground v.1.15,2013-07-01 03:52:00,
2013-06-30 22:57:00,56.1,51.0,29.99,ENE,57,0.0,0.0,83,0.00,,,0.00,0,Wunderground v.1.15,2013-07-01 03:57:00,
2013-06-30 23:01:00,55.9,51.1,29.99,ENE,57,0.0,0.0,84,0.00,,,0.00,0,Wunderground v.1.15,2013-07-01 04:01:00,
2013-06-30 23:06:00,55.7,50.9,30.00,ENE,57,0.0,0.0,84,0.00,,,0.00,0,Wunderground v.1.15,2013-07-01 04:06:00,
2013-06-30 23:11:00,55.5,51.1,30.00,ENE,57,0.0,0.0,85,0.00,,,0.00,0,Wunderground v.1.15,2013-07-01 04:11:00,
2013-06-30 23:16:00,55.4,51.0,30.00,ENE,57,0.0,0.0,85,0.00,,,0.00,0,Wunderground v.1.15,2013-07-01 04:16:00,
2013-06-30 23:21:00,55.3,50.9,30.00,ENE,57,0.0,0.0,85,0.00,,,0.00,0,Wunderground v.1.15,2013-07-01 04:21:00,
2013-06-30 23:26:00,55.1,50.7,30.00,ENE,57,0.0,0.0,85,0.00,,,0.00,0,Wunderground v.1.15,2013-07-01 04:26:00,
2013-06-30 23:31:00,54.9,50.5,30.00,ENE,57,0.0,0.0,85,0.00,,,0.00,0,Wunderground v.1.15,2013-07-01 04:31:00,
2013-06-30 23:36:00,54.7,50.3,30.00,ENE,57,0.0,0.0,85,0.00,,,0.00,0,Wunderground v.1.15,2013-07-01 04:36:00,
2013-06-30 23:41:00,54.9,50.8,30.00,ENE,57,0.0,0.0,86,0.00,,,0.00,0,Wunderground v.1.15,2013-07-01 04:41:00,
2013-06-30 23:46:00,54.8,50.7,30.00,ENE,57,0.0,0.0,86,0.00,,,0.00,0,Wunderground v.1.15,2013-07-01 04:46:00,
2013-06-30 23:51:00,54.5,50.4,30.00,ENE,57,0.0,0.0,86,0.00,,,0.00,0,Wunderground v.1.15,2013-07-01 04:51:00,
2013-06-30 23:56:00,54.4,50.3,30.00,ENE,57,0.0,0.0,86,0.00,,,0.00,0,Wunderground v.1.15,2013-07-01 04:56:00,